Погода в Альфаретте

США     34°04′22″N   84°17′42″W
темп.,
°C
ветер,
м/с
пор.,
м/с
влажн.,
%
обл.,
%
осадки,
мм/ч
давл.,
гПа
погр.,
м
26 июля, пн
пн2623:00+26ююв137893 0.8 101575
02:00+25ююв128492 0.9 101580
05:00+24юз11905 0.0 101541
08:00+24сз12875 0.0 1015147
11:00+30з126119 0.6 1015766
14:00+34сз224287 0.8 10132207
17:00+33сз324492 0.1 10121455
20:00+31с125118 0.1 1012122
27 июля, вт
вт2723:00+28ссв11655 0.2 101452
02:00+24всв36856 0.9 1014208
05:00+23всв13883 0.0 1015177
08:00+24св23835 0.1 1015159
11:00+31всв11555 0.0 1016768
14:00+36з113769 0.1 10142299
17:00+32ссв1349100 0.3 1013381
20:00+31ссв235121 0.3 1012486
28 июля, ср
ср2823:00+25вюв358311 1.6 1015269
02:00+24вюв238982 2.2 1016244
05:00+23всв128813 0.0 1015107
08:00+23с127913 0.0 1016163
11:00+30ссз23535 0.0 1016741
14:00+35с23362 0.0 10152130
17:00+37в23289 0.0 10133176
20:00+27юз3573100 0.8 1014126
29 июля, чт
чт2923:00+27сз11650 0.1 101531
02:00+26в11670 0.1 101522
05:00+25ссз11690 0.0 101511
08:00+26с11680 0.0 101680
11:00+33з12430 0.0 1017782
14:00+37сз33250 0.0 10152809
17:00+37сз53230 0.0 10142731
20:00+34сз35312 0.0 1014944
30 июля, пт
пт3023:00+30зсз39490 0.0 1015426
02:00+28сз25580 0.0 1014173
05:00+26сз2561100 0.0 1015150
08:00+26зсз2461100 0.0 1015159
11:00+32зсз4546100 0.0 1015852
14:00+35сз4636100 0.0 10151813
17:00+36сз4535100 0.0 10142588
20:00+34сз454196 0.0 10141839